This is the latest recevied weather packets stored in our database for station/object KA3WVU. If no packets are shown the sender has not sent any weather packets the latest 10 day(s).
| Time | Temp. | Humidity | Pressure | Rain* | Wind** | Luminosity | Snow |
|---|---|---|---|---|---|---|---|
| 1777862520 | 6.67° C | 58% | 1012.7 hPa | 0 mm | - | 0 W/m² | - |
| 1777862216 | 7.22° C | 56% | 1012.8 hPa | 0 mm | - | 0 W/m² | - |
| 1777861913 | 6.67° C | 58% | 1012.7 hPa | 0 mm | - | 0 W/m² | - |
| 1777861609 | 6.67° C | 57% | 1012.9 hPa | 0 mm | - | 0 W/m² | - |
| 1777861305 | 6.67° C | 57% | 1012.8 hPa | 0 mm | - | 0 W/m² | - |
| 1777861003 | 6.67° C | 57% | 1012.9 hPa | 0 mm | - | 0 W/m² | - |
| 1777860699 | 7.22° C | 58% | 1013 hPa | 0 mm | - | 0 W/m² | - |
| 1777860397 | 7.22° C | 55% | 1012.9 hPa | 0 mm | - | 0 W/m² | - |
| 1777860092 | 7.22° C | 57% | 1012.9 hPa | 0 mm | - | 0 W/m² | - |
| 1777859789 | 6.67° C | 57% | 1012.8 hPa | 0 mm | - | 0 W/m² | - |
| 1777859485 | 6.67° C | 56% | 1012.7 hPa | 0 mm | - | 0 W/m² | - |
| 1777859181 | 7.22° C | 57% | 1012.8 hPa | 0 mm | - | 0 W/m² | - |
| 1777858879 | 7.22° C | 56% | 1012.7 hPa | 0 mm | - | 0 W/m² | - |
| 1777858576 | 7.22° C | 56% | 1012.8 hPa | 0 mm | - | 0 W/m² | - |
| 1777858273 | 7.22° C | 56% | 1012.7 hPa | 0 mm | - | 0 W/m² | - |
| 1777857970 | 7.22° C | 55% | 1012.5 hPa | 0 mm | - | 0 W/m² | - |
| 1777857668 | 7.22° C | 56% | 1012.5 hPa | 0 mm | - | 0 W/m² | - |
| 1777857365 | 7.22° C | 54% | 1012.6 hPa | 0 mm | - | 0 W/m² | - |
| 1777857061 | 7.22° C | 55% | 1012.4 hPa | 0 mm | - | 0 W/m² | - |
| 1777856756 | 7.22° C | 53% | 1012.4 hPa | 0 mm | - | 0 W/m² | - |
| 1777856453 | 7.78° C | 53% | 1012.7 hPa | 0 mm | - | 0 W/m² | - |
| 1777856150 | 7.22° C | 53% | 1012.6 hPa | 0 mm | - | 0 W/m² | - |
| 1777855847 | 7.78° C | 53% | 1012.5 hPa | 0 mm | - | 0 W/m² | - |
| 1777855545 | 7.78° C | 52% | 1012.4 hPa | 0 mm | - | 0 W/m² | - |
| 1777855242 | 7.78° C | 51% | 1012.1 hPa | 0 mm | - | 0 W/m² | - |
* Rain latest hour (hover to see other rain measurements)
** Current wind speed in m/s (hover to see current wind gust speed)